Location: Mannheim
(49.4880°N, 8.4650°E)
Time: 13:18:17
(UTC+02:00)

Tiangong - Visible Passes

Search period start: 20 September 2024 00:00
Search period end: 30 September 2024 00:00
Orbit: 373 x 377 km, 41.5° (Epoch: 18 September)

Date Brightness Start Highest point End Pass type
(mag) Time Alt. Az. Time Alt. Az. Time Alt. Az.
20 Sep 0.2 20:06:27 10° S 20:07:16 11° SSE 20:08:05 10° SE visible
20 Sep 0.7 21:40:55 10° SW 21:41:06 11° SW 21:41:06 11° SW visible
21 Sep -0.2 20:38:26 10° SSW 20:40:31 17° S 20:41:13 16° SSE visible
22 Sep -0.1 21:11:29 10° SW 21:13:12 18° SSW 21:13:12 18° SSW visible
23 Sep -0.2 20:08:45 10° SW 20:10:59 18° S 20:13:06 11° SE visible
23 Sep 0.8 21:44:57 10° SW 21:45:05 11° SW 21:45:05 11° SW visible
24 Sep -0.2 20:41:52 10° SW 20:44:06 18° S 20:44:54 17° SSE visible
25 Sep 0.4 21:15:29 10° SW 21:16:37 13° SSW 21:16:37 13° SSW visible
26 Sep 0.1 20:12:03 10° SW 20:14:07 16° S 20:16:10 10° SSE visible
27 Sep 0.5 20:46:09 10° SW 20:46:55 11° SSW 20:47:40 10° S visible
28 Sep 0.4 19:42:05 10° SW 19:43:50 14° SSW 19:45:35 10° SSE visible
